カタログに戻る

STARLINK-32498

運用中通信VLEO
NORAD 61966·PAYLOAD·🇺🇸 United States

打ち上げ Nov 14, 2024 から Cape Canaveral Space Force Station

Loading…

次のパス (今後24時間)

TLE

最新Source: CelesTrak SupGP

元期: Sep 15, 2026, 02:36 UTC

1 61966C 24210H   26258.10881944 -.00016340  00000+0 -59193-3 0  2588
2 61966  43.0007 175.4070 0001218 271.1698 274.9122 15.27581099    19

AllMySatでSTARLINK-32498をリアルタイム追跡

Download on the App Store